| time (UTC) | temp F | wind direction | speed MPH | gust MPH | rain 1hr in | rain 24hr in | rain mn in | humidity % | barometer mb |
| 20260505091554 | 35 | 315 | 3.0 | 5.0 | 0.00 | 0.00 | 0.00 | 72 | 1009.6 |
| 20260505090054 | 35 | 304 | 3.0 | 4.0 | 0.00 | 0.00 | 0.00 | 71 | 1009.6 |
| 20260505084556 | 36 | 304 | 4.0 | 6.0 | 0.00 | 0.00 | 0.00 | 69 | 1009.4 |
| 20260505083055 | 37 | 309 | 4.0 | 5.0 | 0.00 | 0.00 | 0.00 | 68 | 1009.4 |
| 20260505081539 | 37 | 309 | 4.0 | 7.0 | 0.00 | 0.00 | 0.00 | 67 | 1009.3 |
| 20260505080038 | 37 | 309 | 5.0 | 7.0 | 0.00 | 0.00 | 0.00 | 67 | 1009.6 |
| 20260505074540 | 37 | 311 | 5.0 | 6.0 | 0.00 | 0.00 | 0.00 | 66 | 1009.5 |
| 20260505073049 | 38 | 310 | 5.0 | 6.0 | 0.00 | 0.00 | 0.00 | 65 | 1009.4 |
| 20260505071542 | 38 | 304 | 5.0 | 7.0 | 0.00 | 0.00 | 0.00 | 65 | 1009.4 |
| 20260505070043 | 38 | 309 | 5.0 | 7.0 | 0.00 | 0.00 | 0.00 | 64 | 1009.3 |
| 20260505064603 | 40 | 309 | 4.0 | 7.0 | 0.00 | 0.00 | 0.00 | 61 | 1009.2 |
| 20260505063048 | 40 | 316 | 3.0 | 7.0 | 0.00 | 0.00 | 0.00 | 61 | 1009.1 |
| 20260505061546 | 41 | 338 | 4.0 | 6.0 | 0.00 | 0.00 | 0.00 | 60 | 1008.9 |
| 20260505060048 | 40 | 319 | 3.0 | 6.0 | 0.00 | 0.00 | 0.00 | 62 | 1009.1 |
| 20260505054550 | 40 | 315 | 2.0 | 4.0 | 0.00 | 0.00 | 0.00 | 62 | 1009.0 |
| 20260505053054 | 41 | 315 | 2.0 | 4.0 | 0.00 | 0.00 | 0.00 | 59 | 1009.0 |
| 20260505051541 | 41 | 315 | 3.0 | 5.0 | 0.00 | 0.00 | 0.00 | 60 | 1009.0 |
| 20260505041542 | 43 | 318 | 2.0 | 3.0 | 0.00 | 0.00 | 0.00 | 59 | 1009.0 |
| 20260505040059 | 45 | 321 | 2.0 | 4.0 | 0.00 | 0.00 | 0.00 | 55 | 1008.9 |
| 20260505034605 | 46 | 321 | 2.0 | 5.0 | 0.00 | 0.00 | 0.00 | 54 | 1009.0 |
| 20260505033045 | 46 | 329 | 2.0 | 6.0 | 0.00 | 0.00 | 0.00 | 53 | 1009.1 |
| 20260505031545 | 47 | 309 | 3.0 | 7.0 | 0.00 | 0.00 | 0.00 | 52 | 1009.0 |
| 20260505030049 | 47 | 328 | 3.0 | 6.0 | 0.00 | 0.00 | 0.00 | 51 | 1009.0 |
| 20260505024545 | 47 | 325 | 3.0 | 6.0 | 0.00 | 0.00 | 0.00 | 51 | 1008.7 |
| 20260505023048 | 48 | 325 | 1.0 | 6.0 | 0.00 | 0.00 | 0.00 | 50 | 1008.4 |
| 20260505021545 | 49 | 316 | 3.0 | 6.0 | 0.00 | 0.00 | 0.00 | 49 | 1008.2 |
| 20260505014544 | 51 | 315 | 6.0 | 10.0 | 0.00 | 0.00 | 0.00 | 46 | 1008.0 |
| 20260505013043 | 51 | 330 | 6.0 | 13.0 | 0.00 | 0.00 | 0.00 | 45 | 1007.9 |
| 20260505011553 | 52 | 317 | 7.0 | 14.0 | 0.00 | 0.00 | 0.00 | 45 | 1007.5 |
| 20260505010057 | 52 | 313 | 8.0 | 18.0 | 0.00 | 0.00 | 0.00 | 44 | 1007.5 |
| 20260505004556 | 52 | 306 | 9.0 | 24.0 | 0.00 | 0.00 | 0.00 | 44 | 1007.4 |
| 20260505003045 | 52 | 328 | 11.0 | 25.0 | 0.00 | 0.00 | 0.00 | 43 | 1007.4 |
| 20260505001545 | 52 | 327 | 14.0 | 24.0 | 0.00 | 0.00 | 0.00 | 43 | 1007.3 |
| 20260505000044 | 53 | 356 | 15.0 | 24.0 | 0.00 | 0.00 | 0.00 | 43 | 1007.1 |
| 20260504234548 | 53 | 326 | 15.0 | 28.0 | 0.00 | 0.00 | 0.00 | 43 | 1007.1 |
| 20260504233039 | 53 | 308 | 16.0 | 28.0 | 0.00 | 0.00 | 0.00 | 45 | 1007.3 |
| 20260504231618 | 53 | 338 | 14.0 | 30.0 | 0.00 | 0.00 | 0.00 | 45 | 1007.1 |
| 20260504230128 | 53 | 315 | 15.0 | 33.0 | 0.00 | 0.00 | 0.00 | 45 | 1007.0 |
| 20260504224544 | 54 | 321 | 22.0 | 32.0 | 0.00 | 0.00 | 0.00 | 45 | 1006.7 |
| 20260504223048 | 55 | 311 | 20.0 | 37.0 | 0.00 | 0.00 | 0.00 | 44 | 1006.4 |
| 20260504221619 | 55 | 300 | 19.0 | 31.0 | 0.00 | 0.00 | 0.00 | 44 | 1006.2 |
| 20260504220049 | 55 | 304 | 17.0 | 27.0 | 0.00 | 0.00 | 0.00 | 48 | 1006.4 |
| 20260504214544 | 55 | 298 | 21.0 | 38.0 | 0.00 | 0.00 | 0.00 | 46 | 1006.5 |
| 20260504213046 | 55 | 298 | 22.0 | 37.0 | 0.00 | 0.00 | 0.00 | 44 | 1006.6 |
| 20260504211549 | 56 | 295 | 21.0 | 37.0 | 0.00 | 0.00 | 0.00 | 43 | 1006.3 |
| 20260504210050 | 56 | 316 | 15.0 | 30.0 | 0.00 | 0.00 | 0.00 | 45 | 1006.0 |
| 20260504204549 | 57 | 4 | 11.0 | 23.0 | 0.00 | 0.00 | 0.00 | 46 | 1005.8 |
| 20260504203045 | 57 | 307 | 18.0 | 36.0 | 0.00 | 0.00 | 0.00 | 46 | 1005.7 |
| 20260504201544 | 57 | 323 | 20.0 | 35.0 | 0.00 | 0.00 | 0.00 | 44 | 1005.8 |
| 20260504200049 | 59 | 321 | 22.0 | 35.0 | 0.00 | 0.00 | 0.00 | 40 | 1005.6 |
| 20260504194546 | 59 | 342 | 24.0 | 32.0 | 0.00 | 0.00 | 0.00 | 38 | 1005.2 |
| 20260504193049 | 60 | 4 | 19.0 | 30.0 | 0.00 | 0.00 | 0.00 | 38 | 1005.2 |
| 20260504191609 | 59 | 311 | 17.0 | 26.0 | 0.00 | 0.00 | 0.00 | 43 | 1005.0 |
| 20260504190047 | 60 | 315 | 17.0 | 32.0 | 0.00 | 0.00 | 0.00 | 40 | 1004.8 |
| 20260504184555 | 60 | 333 | 15.0 | 27.0 | 0.00 | 0.00 | 0.00 | 40 | 1004.6 |
| 20260504183052 | 61 | 326 | 15.0 | 27.0 | 0.00 | 0.00 | 0.00 | 43 | 1004.4 |
| 20260504181548 | 61 | 345 | 15.0 | 24.0 | 0.00 | 0.00 | 0.00 | 39 | 1004.3 |
| 20260504180045 | 61 | 319 | 21.0 | 32.0 | 0.00 | 0.00 | 0.00 | 40 | 1004.0 |
| 20260504174545 | 61 | 318 | 16.0 | 32.0 | 0.00 | 0.00 | 0.00 | 38 | 1003.9 |
| 20260504173044 | 61 | 347 | 19.0 | 31.0 | 0.00 | 0.00 | 0.00 | 32 | 1003.9 |
| 20260504171543 | 60 | 305 | 17.0 | 30.0 | 0.00 | 0.00 | 0.00 | 43 | 1003.7 |